0004P 2006 11 15.4223 1.666264 0.566766 204.9800 199.2930 9.0341 20080514 8.0 6.0 4P/Faye MPC 57949 0006P 2008 08 14.9950 1.353470 0.612814 178.1252 138.9378 19.5140 20080514 7.5 16.0 6P/d'Arrest MPEC 2008-J23 0007P 2008 09 26.6337 1.253294 0.634858 172.3272 93.4231 22.3103 20080514 10.0 6.0 7P/Pons-Winnecke MPC 54170 0008P 2008 01 27.0212 1.027136 0.819808 207.5060 270.3412 54.9828 20080514 8.0 8.0 8P/Tuttle MPC 61707 0009P 2011 01 11.8638 1.507904 0.517251 178.9199 68.9337 10.5287 20080514 5.5 10.0 9P/Tempel MPC 45657 0010P 2010 07 4.8182 1.424335 0.536080 195.5694 117.8372 12.0239 20080514 5.0 10.0 10P/Tempel MPC 59600 0011P 2008 05 4.5767 1.553565 0.544949 163.8984 240.5262 13.5532 20080514 17.0 4.0 11P/Tempel-Swift-LINEAR MPC 54168 0014P 2009 02 27.0036 2.724415 0.358462 158.9025 202.1519 27.9364 20080514 5.5 12.0 14P/Wolf MPC 56802 0015P 2008 06 22.5555 0.970036 0.721372 347.4762 13.8248 6.8143 20080514 12.0 4.0 15P/Finlay MPC 54169 0016P 2008 04 12.5954 1.466611 0.562689 219.4711 159.3750 4.2583 20080514 7.5 10.0 16P/Brooks MPC 54168 0017P 2007 05 4.5694 2.053207 0.432668 24.2856 326.8586 19.1134 20080514 10.0 6.0 17P/Holmes MPC 51822 0019P 2008 07 22.3317 1.354775 0.624448 353.3798 75.4445 30.3245 20080514 4.5 10.0 19P/Borrelly MPC 60665 0022P 2009 05 25.3761 1.578029 0.544257 162.7903 120.8979 4.7239 20080514 3.0 10.4 22P/Kopff MPC 56803 0026P 2008 03 23.6889 1.116711 0.633009 1.7153 211.7058 22.3562 20080514 12.0 16.0 26P/Grigg-Skjellerup MPC 62583 0029P 2004 06 26.4442 5.718218 0.044787 47.9099 312.6364 9.3940 20080514 4.0 4.0 29P/Schwassmann-Wachmann MPC 42666 0031P 2010 10 1.3014 3.422174 0.192100 18.2346 114.1887 4.5475 20080514 5.0 8.0 31P/Schwassmann-Wachmann MPC 59600 0036P 2012 01 1.7886 3.089461 0.258168 201.9772 182.3904 9.9352 20080514 8.5 6.0 36P/Whipple MPC 40670 0044P 2008 02 18.2698 2.106401 0.428316 58.0733 286.6006 5.9047 20080514 8.3 6.0 44P/Reinmuth MPC 60465 0046P 2008 02 2.4917 1.057458 0.658121 356.3433 82.1738 11.7391 20080514 9.0 6.0 46P/Wirtanen MPC 60466 0047P 2009 01 31.6268 2.799197 0.320295 357.5833 357.0187 13.0438 20080514 1.0 11.2 47P/Ashbrook-Jackson MPC 56802 0049P 2005 02 16.5994 1.392844 0.606605 333.2136 118.9911 19.0763 20080514 11.3 4.4 49P/Arend-Rigaux MPC 45656 0050P 2007 11 1.1819 1.924281 0.529317 49.0430 355.3306 19.1551 20080514 9.5 6.0 50P/Arend MPC 60466 0051P 2008 06 19.4161 1.687665 0.544478 269.1929 83.7652 5.4254 20080514 11.5 8.0 51P/Harrington MPC 54169 0057P 2008 12 26.0489 1.723717 0.500077 115.3152 188.8430 2.8482 20080514 12.5 6.0 57P/du Toit-Neujmin-Delporte MPC 54171 0059P 2009 03 7.6980 2.355552 0.474816 127.5402 313.0380 9.3410 20080514 7.0 6.0 59P/Kearns-Kwee MPC 56803 0061P 2008 09 6.0815 2.108045 0.426518 221.6146 163.1185 6.0090 20080514 6.0 10.0 61P/Shajn-Schaldach MPC 54170 0065P 2010 03 1.6852 2.441306 0.319716 196.4956 68.3787 10.3855 20080514 5.0 6.0 65P/Gunn MPC 59598 0067P 2009 02 28.3054 1.247182 0.640325 12.6109 50.2327 7.0415 20080514 11.0 4.0 67P/Churyumov-Gerasimenko MPC 56802 0068P 2009 01 21.0495 1.758579 0.640541 153.9977 175.3517 11.1437 20080514 10.0 4.0 68P/Klemola MPC 56802 0070P 2007 10 5.9014 2.011872 0.453058 2.0963 119.2599 6.5957 20080514 11.0 6.0 70P/Kojima MPC 51823 0074P 2009 07 31.0050 3.557057 0.147832 87.3430 77.1140 6.6484 20080514 5.0 6.0 74P/Smirnova-Chernykh MPC 56804 0077P 2009 07 7.7653 2.310227 0.358416 196.6703 14.9274 24.3948 20080514 7.0 8.0 77P/Longmore MPC 56804 0079P 2008 05 28.4231 1.230507 0.593996 253.2743 307.8391 2.8933 20080514 16.0 4.0 79P/du Toit-Hartley MPC 61438 0081P 2010 02 22.7254 1.596604 0.537535 41.8493 136.1062 3.2375 20080514 7.0 6.0 81P/Wild MPC 59598 0082P 2010 01 13.9307 3.632453 0.121583 226.5311 239.5163 1.1267 20080514 5.0 8.0 82P/Gehrels MPC 59598 0085P 2008 12 16.3259 1.147535 0.775555 53.5433 343.4713 4.2157 20080514 6.5 8.0 85P/Boethin MPC 54171 0086P 2008 05 20.0011 2.301154 0.365982 179.1527 72.5835 15.4478 20080514 11.0 6.0 86P/Wild MPC 54168 0087P 2007 07 7.2553 2.172337 0.377200 24.2804 182.1165 2.5770 20080514 7.2 10.0 87P/Bus MPC 51823 0088P 2009 10 12.4290 1.364208 0.561950 235.9005 56.7748 4.3814 20080514 11.0 6.0 88P/Howell MPC 56805 0089P 2009 08 17.1356 2.280621 0.399055 249.2856 42.3958 12.0315 20080514 11.5 6.0 89P/Russell MPC 56804 0093P 2007 12 17.3420 1.704688 0.611821 74.6658 339.9211 12.2184 20080514 9.5 6.0 93P/Lovas MPC 51824 0099P 2007 01 20.6359 4.721502 0.229335 173.3777 28.3585 4.3378 20080514 4.5 6.0 99P/Kowal MPC 51821 0110P 2008 02 3.4422 2.488433 0.312527 167.7874 287.7456 11.6796 20080514 1.0 12.0 110P/Hartley MPC 54167 0113P 2008 03 23.4034 2.128510 0.423067 49.8465 14.4725 5.7753 20080514 13.5 4.0 113P/Spitaler MPC 54168 0116P 2009 07 18.8524 2.174529 0.374891 173.5925 21.0462 3.6128 20080514 2.5 10.0 116P/Wild MPC 62583 0117P 2005 12 20.8697 3.039369 0.255777 222.8810 58.9433 8.7067 20080514 2.5 8.0 117P/Helin-Roman-Alu MPC 45658 0119P 2005 05 23.1382 3.042494 0.290179 181.2146 244.0809 5.1888 20080514 3.5 8.0 119P/Parker-Hartley MPC 52907 0124P 2008 04 27.2107 1.468573 0.542345 181.3695 1.3523 31.3407 20080514 13.5 2.8 124P/Mrkos MPC 54168 0128P 2007 06 13.4856 3.068584 0.319989 210.4210 214.4093 4.3550 20080514 8.5 4.0 128P/Shoemaker-Holt MPC 51822 0129P 2005 07 6.1490 2.792544 0.259917 187.3558 301.3657 5.2857 20080514 11.0 4.0 129P/Shoemaker-Levy MPC 50140 0131P 2004 12 16.7610 2.421739 0.342104 179.6862 214.2146 7.3518 20080514 11.0 4.0 131P/Mueller MPC 52907 0135P 2007 05 29.9309 2.709109 0.291298 22.1236 213.2092 6.0499 20080514 7.0 8.0 135P/Shoemaker-Levy MPC 51822 0136P 2007 10 22.2796 2.960685 0.293149 224.8791 137.5572 9.4272 20080514 11.0 4.0 136P/Mueller MPC 60282 0137P 2009 05 13.4472 1.913204 0.575623 140.7507 233.2315 4.8602 20080514 11.0 4.0 137P/Shoemaker-Levy MPC 56803 0139P 2008 04 19.3373 3.402793 0.246556 165.5200 242.4525 2.3297 20080514 9.5 4.0 139P/Vaisala-Oterma MPC 60666 0142P 2010 05 31.4583 2.486612 0.498798 175.9093 176.5548 12.3023 20080514 8.5 6.0 142P/Ge-Wang MPC 59599 0143P 2009 06 12.1095 2.538107 0.410222 320.7308 245.3839 4.6899 20080514 13.5 2.0 143P/Kowal-Mrkos MPC 56803 0146P 2008 05 21.3752 1.417460 0.647993 316.8314 53.5713 23.0796 20080514 15.0 4.0 146P/Shoemaker-LINEAR MPC 54168 0148P 2008 05 22.7615 1.702762 0.537892 6.6832 89.8037 3.6784 20080514 16.0 2.0 148P/Anderson-LINEAR MPC 60927 0150P 2008 11 26.0107 1.767610 0.545932 245.6773 272.4303 18.5008 20080514 13.5 4.0 150P/LONEOS MPC 54170 0156P 2007 06 17.3580 1.592819 0.557703 357.6699 39.0415 20.7477 20080514 15.5 2.0 156P/Russell-LINEAR MPC 51823 0157P 2010 02 20.5118 1.378038 0.599143 148.0328 300.1381 7.2613 20080514 10.0 4.0 157P/Tritton MPC 59598 0158P 2012 09 21.8729 4.584770 0.028710 232.0386 137.3075 7.9084 20080514 9.0 4.0 158P/Kowal-LINEAR MPC 50356 0159P 2004 03 1.1391 3.646563 0.379639 4.7772 55.1328 23.4295 20080514 10.0 4.0 159P/LONEOS MPC 50461 0166P 2002 05 12.3187 8.548058 0.381422 321.4528 64.4766 15.3780 20080514 5.5 4.0 166P/NEAT MPC 54366 0167P 2001 05 5.7686 11.799742 0.274000 344.3701 295.7695 19.0884 20080514 9.5 2.0 167P/CINEOS MPC 54367 0169P 2009 11 30.3955 0.607436 0.766782 217.9764 176.2044 11.3006 20080514 16.0 2.0 169P/NEAT MPC 56805 0172P 2008 10 12.7890 2.240520 0.361895 178.9809 40.0897 11.5176 20080514 13.0 4.0 172P/Yeung MPC 54825 0173P 2008 05 18.5230 4.214478 0.261149 29.8349 100.5697 16.4958 20080514 7.5 4.0 173P/Mueller MPC 54987 0174P 2015 04 18.3204 5.844033 0.457325 162.4069 173.3475 4.3389 20080514 9.5 2.0 174P/Echeclus MPC 55982 0176P 2005 10 17.9021 2.577895 0.192860 35.9989 346.5353 0.2379 20080514 15.0 2.0 176P/LINEAR MPO 87922 0179P 2007 12 2.8620 4.086833 0.308061 295.4461 115.8490 19.8752 20080514 2.5 8.0 179P/Jedicke MPC 57949 0180P 2008 05 26.7190 2.468692 0.357638 94.9156 84.7526 16.9136 20080514 11.0 4.0 180P/NEAT MPC 62583 0181P 2006 11 25.0684 1.126703 0.706822 333.5581 37.8460 16.9289 20080514 11.5 4.0 181P/Shoemaker-Levy MPC 57949 0183P 2008 05 9.1169 3.893979 0.135818 161.6770 5.8431 18.7306 20080514 12.5 2.0 183P/Korlevic-Juric MPC 58540 0186P 2008 03 20.7622 4.263490 0.118563 278.7798 327.8488 28.8445 20080514 7.5 4.0 186P/Garradd MPC 59045 0187P 2008 10 6.2374 3.693217 0.170318 131.9408 112.0017 13.7325 20080514 9.0 4.0 187P/LINEAR MPC 62583 0188P 2007 12 16.1514 2.552131 0.416033 26.4405 359.1465 10.5456 20080514 11.5 4.0 188P/LINEAR-Mueller MPC 60099 0190P 2007 07 8.2095 2.031756 0.520851 49.7350 336.1119 2.1900 20080514 13.0 4.0 190P/Mueller MPC 60282 0191P 2007 09 13.1152 2.047867 0.420218 274.1706 106.5270 8.7613 20080514 13.0 4.0 191P/McNaught MPC 60666 0192P 2007 12 17.3423 1.460074 0.773671 312.8472 51.6496 24.5604 20080514 15.0 4.0 192P/Shoemaker-Levy MPC 60927 0193P 2008 02 20.5107 2.155763 0.395945 8.2918 335.2570 10.7041 20080514 14.0 4.0 193P/LINEAR-NEAT MPC 60928 0194P 2008 02 26.1850 1.708744 0.574149 130.6398 352.0623 11.1186 20080514 16.0 4.0 194P/LINEAR MPC 61438 0195P 2009 01 21.3448 4.438410 0.314969 249.6426 243.2590 36.3657 20080514 8.5 4.0 195P/Hill MPC 61438 0196P 2008 02 7.1549 2.137865 0.433899 11.7166 24.3410 19.3780 20080514 13.5 4.0 196P/Tichy MPC 61996 0197P 2008 05 19.0175 1.060435 0.630017 188.7935 66.3890 25.5549 20080514 16.5 2.0 197P/LINEAR MPC 62272 PJ94J030 2009 04 9.9739 2.935386 0.507143 191.9497 92.9467 24.7670 20080514 10.0 4.0 P/1994 J3 (Shoemaker) MPC 56803 CJ95O010 1997 03 30.8302 0.919881 0.994974 130.6933 282.9469 89.2176 20080514 -2.0 4.0 C/1995 O1 (Hale-Bopp) MPC 61436 PJ97T030 2015 05 10.8538 4.254991 0.362612 333.5383 63.1426 4.8407 20080514 13.0 2.0 P/1997 T3 (Lagerkvist-Carsenty) MPC 35205 PJ97V010 2008 08 27.3495 3.272113 0.333367 133.7735 234.8151 12.1219 20080514 9.0 4.0 P/1997 V1 (Larsen) MPC 54170 PJ98Q54P 2007 05 12.2125 1.879748 0.552237 30.3424 341.8006 17.7122 20080514 15.0 2.0 P/1998 QP54 (LONEOS-Tucker) MPC 51822 PJ98U040 2012 04 25.9736 3.856805 0.309355 251.7745 181.6502 31.4910 20080514 8.0 4.0 P/1998 U4 (Spahr) MPC 48380 PJ98V24S 2008 05 24.6726 3.422563 0.242148 244.3746 159.1849 5.0263 20080514 13.0 2.0 P/1998 VS24 (LINEAR) MPC 54169 PJ99W07J 2010 02 8.6929 3.182932 0.314467 154.5481 290.5624 2.9761 20080514 14.5 2.0 P/1999 WJ7 (Korlevic) MPC 59598 PJ99XC0N 2008 11 12.7333 3.303990 0.210636 161.6505 285.4484 5.0263 20080514 13.5 2.0 P/1999 XN120 (Catalina) MPC 54170 PK00Y030 2011 12 25.7158 3.993313 0.200047 87.7061 354.5068 2.2569 20080514 9.0 4.0 P/2000 Y3 (Scotti) MPC 44030 PK01C08V 2008 10 11.3673 2.159925 0.444254 151.6072 359.8958 9.0353 20080514 13.0 4.0 P/2001 CV8 (LINEAR) MPC 54170 CK01Q040 2004 05 16.1541 0.965151 1.001021 1.3124 210.3342 99.5533 20080514 3.5 4.0 C/2001 Q4 (NEAT) MPC 52163 PK01R010 2008 08 5.1809 1.345014 0.611638 24.9617 35.3006 7.0326 20080514 14.0 4.0 P/2001 R1 (LONEOS) MPC 54169 PK01YC7X 2011 08 26.5263 3.428970 0.176279 115.1246 31.0687 7.9178 20080514 14.5 2.0 P/2001 YX127 (LINEAR) MPC 51367 PK02CD4W 2009 01 5.9283 1.843679 0.488881 190.2690 348.2635 15.2130 20080514 13.0 4.0 P/2002 CW134 (LINEAR) MPC 56802 CK02J050 2003 09 20.5784 5.740387 1.000533 75.0274 314.0845 117.2671 20080514 11.0 2.0 C/2002 J5 (LINEAR) MPC 51367 PK02J16N 2009 01 25.0805 1.783876 0.487217 39.6845 230.0358 11.4186 20080514 14.5 4.0 P/2002 JN16 (LINEAR) MPC 56802 CK02L090 2004 04 7.1448 7.035150 1.000096 231.5035 110.3863 68.4531 20080514 8.5 2.0 C/2002 L9 (NEAT) MPC 52905 PK02L11Z 2010 03 6.7115 2.364282 0.352455 107.8536 231.1006 11.5235 20080514 11.0 4.0 P/2002 LZ11 (LINEAR) MPC 59599 PK02O080 2010 06 7.3344 3.216043 0.200689 222.2096 75.4538 12.7892 20080514 11.0 4.0 P/2002 O8 (NEAT) MPC 59599 PK02Q010 2009 03 20.9912 1.550855 0.563953 185.0323 174.0139 36.2769 20080514 13.0 4.0 P/2002 Q1 (Van Ness) MPC 56803 CK02T070 2004 04 22.3101 0.619940 1.000493 158.1274 95.1627 160.5215 20080514 4.0 4.0 C/2002 T7 (LINEAR) MPC 52164 CK02V94Q 2006 02 6.8376 6.798079 0.964653 100.0793 35.0027 70.5315 20080514 9.5 2.0 C/2002 VQ94 (LINEAR) MPC 59874 CK03A020 2003 11 7.7627 11.429961 1.000407 346.7739 154.5749 8.0711 20080514 3.5 4.0 C/2003 A2 (Gleason) MPC 48381 PK03C07P 2011 05 18.2340 3.028008 0.246564 42.7826 133.1054 12.3297 20080514 14.5 2.0 P/2003 CP7 (LINEAR-NEAT) MPC 48921 CK03K040 2004 10 14.1994 1.022379 1.000701 198.4773 18.7156 134.1715 20080514 3.5 4.0 C/2003 K4 (LINEAR) MPC 52315 CK03W42T 2006 04 10.5694 5.191628 1.000611 92.4847 48.4419 31.4174 20080514 9.0 2.0 C/2003 WT42 (LINEAR) MPC 56169 PK04A010 2004 09 7.4899 5.487083 0.311021 22.0178 124.9764 10.5510 20080514 6.5 4.0 P/2004 A1 (LONEOS) MPC 60921 CK04B010 2006 02 7.6912 1.603960 1.000984 327.9299 272.8061 114.1022 20080514 10.5 2.0 C/2004 B1 (LINEAR) MPC 57131 CK04D010 2006 02 10.6280 4.975889 0.999588 75.5617 62.2487 45.5416 20080514 11.5 2.0 C/2004 D1 (NEAT) MPC 56169 PK04F030 2005 01 5.2274 2.868315 0.286487 176.3942 78.8196 15.9866 20080514 9.0 4.0 P/2004 F3 (NEAT) MPC 57793 PK04FE0Y 2004 08 4.4944 4.109844 0.167235 239.7171 327.1844 2.1269 20080514 12.5 2.0 P/2004 FY140 (LINEAR) MPC 54823 CK04L020 2005 11 15.4211 3.778330 0.996299 257.3360 99.1654 62.5290 20080514 7.0 4.0 C/2004 L2 (LINEAR) MPC 54823 PK04V050 2005 03 3.4576 4.425488 0.445447 88.2037 47.8548 19.3458 20080514 8.0 4.0 P/2004 V5 (LINEAR-Hill) MPC 53465 CK05B010 2006 02 23.5975 3.204600 1.000747 103.1812 195.5551 92.5207 20080514 6.5 4.0 C/2005 B1 (Christensen) MPC 54164 CK05E020 2006 02 24.0190 1.516878 1.000616 39.9769 347.8039 17.0278 20080514 5.5 4.0 C/2005 E2 (McNaught) MPC 58118 CK05EH3L 2007 03 5.7648 3.886090 1.003091 261.4868 344.8102 130.6743 20080514 11.5 2.0 C/2005 EL173 (LONEOS) MPC 61702 CK05K010 2005 11 20.9017 3.695125 1.001863 134.9665 106.3052 77.7563 20080514 7.0 4.0 C/2005 K1 (Skiff) MPC 56954 PK05L010 2005 12 14.2077 3.145661 0.209146 149.7850 138.3126 7.7353 20080514 9.5 4.0 P/2005 L1 (McNaught) MPC 54559 CK05L030 2008 01 16.1903 5.593365 0.999527 47.1176 288.7399 139.4494 20080514 4.0 4.0 C/2005 L3 (McNaught) MPC 59596 CK05Q010 2005 08 24.4112 6.406870 1.002042 44.6310 87.7479 105.1957 20080514 6.0 4.0 C/2005 Q1 (LINEAR) MPC 61702 PK05R020 2011 06 15.6806 2.125433 0.379542 3.1138 312.6982 10.2419 20080514 10.5 4.0 P/2005 R2 (Van Ness) MPC 57793 CK05R040 2006 03 7.2653 5.186733 0.996334 6.8106 63.7687 164.0135 20080514 7.0 4.0 C/2005 R4 (LINEAR) MPC 57793 PK05R25V 2006 11 6.1456 3.606685 0.166135 191.5186 246.9178 9.8830 20080514 9.5 4.0 P/2005 RV25 (LONEOS-Christensen) MPC 55978 PK05S020 2006 06 27.3984 6.397287 0.197564 229.7347 161.2349 3.1403 20080514 7.5 4.0 P/2005 S2 (Skiff) MPC 54987 CK05S040 2007 07 19.0814 5.850617 0.998678 31.4994 318.2916 107.9603 20080514 5.0 4.0 C/2005 S4 (McNaught) MPC 60464 PK05SL6B 2007 02 11.0761 3.817647 0.463154 83.5425 1.6802 24.1028 20080514 12.0 2.0 P/2005 SB216 (LONEOS) MPC 61994 CK05Y00W 2006 12 7.7817 1.995172 0.989817 234.7923 302.0812 40.7233 20080514 10.0 4.0 C/2005 YW (LINEAR) MPC 57947 CK06E010 2007 01 7.0858 6.041523 1.001994 232.8304 95.0307 83.1920 20080514 6.0 4.0 C/2006 E1 (McNaught) MPC 61994 PK06F010 2008 02 20.0399 4.119435 0.120327 186.8918 124.7591 21.2730 20080514 8.0 4.0 P/2006 F1 (Kowalski) MPC 60465 CK06K010 2007 07 20.6046 4.425501 1.002056 296.4453 72.1169 53.8748 20080514 7.5 4.0 C/2006 K1 (McNaught) MPC 62270 CK06K030 2007 03 13.3186 2.501033 1.000822 328.0570 49.3978 92.6127 20080514 8.0 4.0 C/2006 K3 (McNaught) MPC 61436 CK06K040 2007 11 29.3682 3.188644 0.997790 233.6229 116.6036 111.3446 20080514 6.0 4.0 C/2006 K4 (NEAT) MPC 62270 CK06L020 2006 11 20.2765 1.994362 1.001192 48.0605 239.2520 101.0136 20080514 9.0 4.0 C/2006 L2 (McNaught) MPC 60664 CK06M010 2007 02 13.9858 3.556150 0.977574 122.8982 231.6160 54.8695 20080514 8.5 4.0 C/2006 M1 (LINEAR) MPC 60664 CK06O02F 2008 09 15.6845 2.431414 1.000739 95.6120 318.5089 30.1700 20080514 5.5 4.0 C/2006 OF2 (Broughton) MPC 62270 CK06P010 2007 01 12.6879 0.171195 0.999969 156.0002 267.4158 77.8349 20080514 6.0 4.0 C/2006 P1 (McNaught) MPC 59042 CK06Q010 2008 07 3.8507 2.763652 0.999840 344.3785 199.5469 59.0463 20080514 5.0 4.0 C/2006 Q1 (McNaught) MPC 61994 PK06R020 2006 06 15.6884 3.039641 0.271269 188.9705 139.1347 16.3160 20080514 11.0 4.0 P/2006 R2 (Christensen) MPC 59042 CK06S020 2007 05 7.2177 3.161227 1.001317 166.3235 113.8931 98.9811 20080514 10.0 4.0 C/2006 S2 (LINEAR) MPC 59875 CK06S030 2012 04 17.3803 5.142856 0.999551 140.0059 38.3357 166.0304 20080514 2.0 4.0 C/2006 S3 (LONEOS) MPC 61702 CK06S050 2007 12 9.7241 2.630346 0.972896 182.1017 281.5627 10.1315 20080514 8.0 4.0 C/2006 S5 (Hill) MPC 60465 PK06T010 2006 10 7.0578 0.995643 0.670827 179.6796 279.7676 18.3351 20080514 10.5 4.0 P/2006 T1 (Levy) MPC 58538 PK06U050 2007 01 18.7480 2.325905 0.340744 98.3586 5.0929 3.4308 20080514 12.5 4.0 P/2006 U5 (Christensen) MPC 59596 CK06U060 2008 06 5.4690 2.498300 0.998762 276.5989 180.1853 84.8779 20080514 8.0 4.0 C/2006 U6 (Spacewatch) MPC 60465 CK06V010 2007 11 26.5797 2.674802 0.990218 253.4358 335.7048 31.1218 20080514 8.0 4.0 C/2006 V1 (Catalina) MPC 62580 CK06V13Z 2007 08 10.8926 1.015420 1.000293 174.1268 66.0319 134.7923 20080514 10.5 4.0 C/2006 VZ13 (LINEAR) MPC 60097 CK06W030 2009 07 6.5570 3.126749 1.000069 133.4920 113.5700 127.0741 20080514 5.0 4.0 C/2006 W3 (Christensen) MPC 61436 CK06X010 2006 03 6.1226 6.126119 1.001185 101.3027 255.2432 42.6159 20080514 7.0 4.0 C/2006 X1 (LINEAR) MPC 59875 CK06X01A 2007 07 21.9056 1.804780 0.992651 187.4391 318.6571 30.6307 20080514 10.0 4.0 C/2006 XA1 (LINEAR) MPC 62270 CK06Y00C 2006 09 11.3932 4.947115 0.999508 335.4732 154.2943 69.5824 20080514 8.0 4.0 C/2006 YC (Catalina-Christensen) MPC 59043 CK07B020 2008 08 20.8604 2.974897 0.995869 206.0001 14.8697 27.4958 20080514 6.0 4.0 C/2007 B2 (Skiff) MPC 61178 PK07C020 2007 09 4.4869 3.779256 0.462231 179.4413 276.1173 8.6744 20080514 10.0 4.0 P/2007 C2 (Catalina) MPC 60922 CK07D010 2007 06 19.0585 8.793392 1.000281 340.1517 171.0855 41.4989 20080514 3.5 4.0 C/2007 D1 (LINEAR) MPC 61436 CK07D030 2007 05 27.6139 5.208689 0.992033 309.0844 148.4268 45.9249 20080514 7.5 4.0 C/2007 D3 (LINEAR) MPC 61436 CK07E020 2007 03 27.4834 1.093326 0.999235 340.5476 232.4410 95.8827 20080514 9.5 4.0 C/2007 E2 (Lovejoy) MPC 60664 CK07F010 2007 10 28.7562 0.402396 1.000207 153.7045 172.8898 116.0852 20080514 10.0 4.0 C/2007 F1 (LONEOS) MPC 61178 CK07G010 2008 11 16.3095 2.647054 1.001973 223.9835 78.9970 88.3442 20080514 5.5 4.0 C/2007 G1 (LINEAR) MPC 62270 PK07H010 2007 08 17.7190 2.281109 0.378234 202.6375 144.3715 11.8737 20080514 10.0 4.0 P/2007 H1 (McNaught) MPC 62270 PK07H030 2007 08 15.2356 1.829109 0.477346 350.1082 263.6557 25.2158 20080514 14.0 4.0 P/2007 H3 (Garradd) MPC 60280 CK07J21A 2006 11 14.7437 5.369806 1.001438 93.7521 65.5242 89.8387 20080514 8.0 4.0 C/2007 JA21 (LINEAR) MPC 62581 CK07K010 2007 05 10.0514 9.239476 0.978686 52.0846 294.6496 108.4265 20080514 6.0 4.0 C/2007 K1 (Lemmon) MPC 60664 CK07K030 2008 04 21.7087 2.050944 1.001014 23.5775 263.2575 16.2990 20080514 9.5 4.0 C/2007 K3 (Siding Spring) MPC 60665 CK07K040 2007 05 3.3474 3.527004 1.001306 162.3499 68.5109 98.5900 20080514 10.5 4.0 C/2007 K4 (Gibbs) MPC 60281 CK07K060 2007 07 1.2886 3.432337 0.984075 337.1089 298.0835 105.0991 20080514 11.0 4.0 C/2007 K6 (McNaught) MPC 60465 CK07M010 2008 08 11.8098 7.473317 0.998243 52.6626 326.8137 139.7304 20080514 6.0 4.0 C/2007 M1 (McNaught) MPC 60465 CK07M020 2008 12 8.5781 3.540920 0.999248 220.6723 357.2825 80.9461 20080514 8.0 4.0 C/2007 M2 (Catalina) MPC 61437 CK07M030 2007 09 4.2905 3.468375 0.979235 125.7196 41.6676 161.7417 20080514 9.5 4.0 C/2007 M3 (LINEAR) MPC 62581 CK07N030 2009 01 10.6126 1.211705 1.000227 136.8396 338.4974 178.3719 20080514 6.5 4.0 C/2007 N3 (Lulin) MPC 62581 CK07O010 2007 06 3.2013 2.876756 1.003962 159.3853 116.2346 24.3852 20080514 10.0 4.0 C/2007 O1 (LINEAR) MPC 60465 CK07Q030 2009 10 7.3570 2.250874 0.999866 2.1227 149.4233 65.6495 20080514 4.5 4.0 C/2007 Q3 (Siding Spring) MPC 61437 PK07R010 2007 08 24.0739 4.352250 0.277828 175.1807 181.6634 7.8759 20080514 8.0 4.0 P/2007 R1 (Larson) MPC 62270 PK07S010 2007 12 6.7033 2.494380 0.343312 245.3891 141.6164 5.9725 13.0 4.0 P/2007 S1 (Zhao) MPC 60927 CK07S020 2008 09 14.4684 5.558691 0.556932 210.4260 296.2532 16.8630 20080514 6.5 4.0 C/2007 S2 (Lemmon) MPC 62270 CK07T010 2007 12 12.5333 0.968544 0.999779 233.7592 111.4332 117.6426 20080514 10.5 4.0 C/2007 T1 (McNaught) MPC 62270 PK07T040 2007 07 20.7054 2.008764 0.617562 42.5136 37.2266 23.8728 20080514 13.0 4.0 P/2007 T4 (Gibbs) MPC 61703 CK07T050 2008 05 24.1765 4.049340 0.913398 34.4057 109.8429 45.6151 20080514 8.0 4.0 C/2007 T5 (Gibbs) MPC 61437 PK07T060 2007 08 19.6034 2.231965 0.502827 335.8446 102.6329 22.1508 20080514 12.5 4.0 P/2007 T6 (Catalina) MPC 62582 CK07U010 2008 08 7.0232 3.329267 1.001923 0.9220 50.0403 157.7885 20080514 9.0 4.0 C/2007 U1 (LINEAR) MPC 61704 PK07V010 2007 12 8.4739 2.676584 0.461255 51.4466 8.1810 10.7890 20080514 12.0 4.0 P/2007 V1 (Larson) MPC 61437 PK07V020 2007 07 30.9904 2.774777 0.318024 278.5386 99.8672 2.4707 20080514 13.0 4.0 P/2007 V2 (Hill) MPC 61437 PK07V11Q 2008 02 13.6152 2.693631 0.502150 277.6735 164.0538 12.3251 20080514 12.0 4.0 P/2007 VQ11 (Catalina) MPC 61994 CK07V53O 2010 04 26.6854 4.845087 0.999142 75.0008 59.7525 87.0201 20080514 7.0 4.0 C/2007 VO53 (Spacewatch) MPC 61706 CK07W010 2008 06 24.8879 0.849650 1.000137 306.5504 334.5303 9.8892 20080514 9.5 4.0 C/2007 W1 (Boattini) MPC 62271 CK07W030 2008 06 2.8068 1.776512 1.000050 112.6335 73.0684 78.6728 20080514 12.0 4.0 C/2007 W3 (LINEAR) MPC 62582 CK07Y010 2008 03 19.3127 3.340791 1.000336 357.1230 133.0925 110.1765 20080514 10.5 4.0 C/2007 Y1 (LINEAR) MPC 62271 CK07Y020 2008 04 8.4076 4.208901 0.996311 257.6879 303.4619 98.5030 20080514 9.0 4.0 C/2007 Y2 (McNaught) MPC 62271 CK08A010 2008 09 29.1343 1.073045 1.000267 348.4818 277.8856 82.5507 20080514 6.5 4.0 C/2008 A1 (McNaught) MPC 62271 PK08A020 2008 06 12.0362 1.305407 0.591306 233.1676 315.5218 19.1588 20080514 15.5 4.0 P/2008 A2 (LINEAR) MPC 62271 CK08C010 2008 04 16.8490 1.262359 1.000035 180.9264 307.7819 61.7850 20080514 10.0 4.0 C/2008 C1 (Chen-Gao) MPC 62582 CK08E010 2008 08 11.3403 4.829688 0.547557 269.9134 189.0391 35.0383 20080514 7.0 4.0 C/2008 E1 (Catalina) MPC 62583 CK08E030 2008 08 1.3168 5.532246 1.000000 217.9974 105.6725 105.0699 6.0 4.0 C/2008 E3 (Garradd) MPEC 2008-J52 CK08G010 2009 01 11.9523 3.990335 0.989687 63.6956 215.9218 72.8687 9.5 4.0 C/2008 G1 (Gibbs) MPEC 2008-J53 PK08G020 2009 04 9.9739 2.935386 0.507143 191.9497 92.9467 24.7670 20080514 10.0 4.0 P/2008 G2 (Shoemaker) MPEC 2008-H20 CK08H010 2008 03 16.566 2.76108 0.94815 96.084 34.616 75.497 10.5 4.0 C/2008 H1 (LINEAR) MPEC 2008-J54 CK08J010 2008 07 13.387 1.72402 1.00000 68.253 273.511 61.854 10.0 4.0 C/2008 J1 (Boattini) MPEC 2008-J55 PK08J020 2008 04 24.017 2.45485 0.27988 143.165 97.432 10.622 9.0 4.0 P/2008 J2 (Beshore) MPEC 2008-J68 CK08J030 2008 04 3.968 3.53197 1.00000 259.341 28.660 25.427 10.5 4.0 C/2008 J3 (McNaught) MPEC 2008-J64 CK08J040 2008 06 19.440 0.44485 1.00000 93.709 289.109 88.396 15.0 4.0 C/2008 J4 (McNaught) MPEC 2008-J69